Regional Weather Roundup
Issued by NWS

Home | Current Version | Previous Version | Graphics & Text | Print | Product List | Glossary On
Versions: 1 2 3 4 5 6 7 8 9 10 11 12 13 14 15 16 17 18 19 20 21 22 23 24 25 26 27 28 29 30 31 32 33 34 35 36 37 38 39 40 41 42 43 44 45 46 47 48 49 50
000
ASUS43 KLMK 012310
RWRKY
KENTUCKY REGIONAL WEATHER ROUNDUP
NATIONAL WEATHER SERVICE LOUISVILLE KY
700 PM EDT MON SEP 01 2014

NOTE "FAIR" INDICATES FEW OR NO CLOUDS BELOW 12,000 FEET
WITH NO SIGNIFICANT WEATHER AND/OR OBSTRUCTIONS TO VISIBILITY.

KYZ001>023-026-027-061>063-070>075-020000-
WESTERN AND SOUTH CENTRAL KENTUCKY

CITY           SKY/WX    TMP DP  RH WIND       PRES   REMARKS
PADUCAH        PTSUNNY   87  71  58 SW10G21   29.93S HX  93
HENDERSON      CLOUDY    84  72  65 W9        29.94S
OWENSBORO      PTSUNNY   82  73  74 SW9       29.96R
HOPKINSVILLE   PTSUNNY   86  71  60 SW14      29.96R HX  91
BOWLING GREEN  CLOUDY    86  69  56 SW10      29.97R HX  90
GLASGOW        PTSUNNY   85  69  58 SW7       29.98R
$$

KYZ024-025-028>034-038-045-046-053-020000-
NORTH CENTRAL KENTUCKY

CITY           SKY/WX    TMP DP  RH WIND       PRES   REMARKS
LOUISVILLE/SDF PTSUNNY   85  71  63 SW13      29.96R HX  90
LOUISVILLE/LOU PTSUNNY   84  70  62 SW10      29.96R
FORT KNOX      PTSUNNY   82  71  68 SW8       29.97R
$$

KYZ035>037-039>044-047>052-055>060-089>105-020000-
NORTHEAST KENTUCKY

CITY           SKY/WX    TMP DP  RH WIND       PRES   REMARKS
LEXINGTON      PTSUNNY   82  71  69 SW12      29.99S
COVINGTON      CLOUDY    82  72  71 SW7       29.94R
FRANKFORT      CLOUDY    82  73  74 SW7       29.96S
$$

KYZ054-064>069-076>088-106>120-020000-
SOUTHEAST KENTUCKY

CITY           SKY/WX    TMP DP  RH WIND       PRES   REMARKS
JACKSON        MOSUNNY   83  68  60 CALM      30.03S
LONDON         MOSUNNY   86  65  49 SW7       30.03F
SOMERSET       PTSUNNY   84  63  48 SW6       30.02S
MIDDLESBORO    SUNNY     84  69  61 S5        30.05S
MONTICELLO     MOCLDY    83  70  64 SW6       30.03F
$$




USA.gov is the U.S. government's official web portal to all federal, state and local government web resources and services.